Location: Augirein
(42.9320°N, 0.9181°E)
Time: 20:22:55
(UTC+00:00)

X-37B - Pass Details

Date: 27 September 2021
Orbit: 385 x 389 km, 45.0° (Epoch: 13 October)

Event Time Altitude Azimuth Distance (km) Brightness Sun altitude
Exits shadow 04:54:07 16° 284° (WNW) 1,114 2.3 -10.9°
Maximum altitude 04:56:30 55° 1° (N) 470 1.0 -10.5°
Drops below altitude 10° 04:59:38 10° 80° (E) 1,415 5.1 -9.9°
Sets 05:01:44 0° 85° (E) 2,270 6.9 -9.5°
